Time,TemperatureF,DewpointF,PressureIn,WindDirection,WindDirectionDegrees,WindSpeedMPH,WindSpeedGustMPH,Humidity,HourlyPrecipIn,Conditions,Clouds,dailyrainin,SoftwareType,DateUTC
2013-01-06 00:00:00,33.2,31.9,30.33,SW,219,0.0,0.0,95,0.00,,,0.00,Wunderground v.1.15,2013-01-06 06:00:00,
2013-01-06 00:08:00,33.2,31.9,30.33,SW,219,0.0,0.0,95,0.00,,,0.00,Wunderground v.1.15,2013-01-06 06:08:00,
2013-01-06 00:13:00,33.2,31.9,30.32,SW,219,0.0,0.0,95,0.00,,,0.00,Wunderground v.1.15,2013-01-06 06:13:00,
2013-01-06 00:19:00,33.2,31.9,30.32,SW,219,0.0,0.0,95,0.00,,,0.00,Wunderground v.1.15,2013-01-06 06:19:00,
2013-01-06 00:24:00,33.0,31.5,30.32,SW,219,0.0,0.0,94,0.00,,,0.00,Wunderground v.1.15,2013-01-06 06:24:00,
2013-01-06 00:31:00,32.7,31.2,30.32,SW,219,0.0,0.0,94,0.00,,,0.00,Wunderground v.1.15,2013-01-06 06:31:00,
2013-01-06 00:38:00,32.4,30.9,30.32,SW,219,0.0,0.0,94,0.00,,,0.00,Wunderground v.1.15,2013-01-06 06:38:00,
2013-01-06 00:45:00,32.2,30.7,30.32,SW,219,0.0,0.0,94,0.00,,,0.00,Wunderground v.1.15,2013-01-06 06:45:00,
2013-01-06 00:52:00,32.0,30.5,30.32,SW,219,0.0,0.0,94,0.00,,,0.00,Wunderground v.1.15,2013-01-06 06:52:00,
2013-01-06 00:59:00,32.0,30.7,30.32,SW,219,0.0,0.0,95,0.00,,,0.00,Wunderground v.1.15,2013-01-06 06:59:00,
2013-01-06 01:06:00,31.9,30.4,30.32,SW,219,0.0,0.0,94,0.00,,,0.00,Wunderground v.1.15,2013-01-06 07:06:00,
2013-01-06 01:12:00,31.7,30.2,30.32,SW,219,0.0,0.0,94,0.00,,,0.00,Wunderground v.1.15,2013-01-06 07:12:00,
2013-01-06 01:18:00,31.6,30.1,30.33,SW,219,0.0,0.0,94,0.00,,,0.00,Wunderground v.1.15,2013-01-06 07:18:00,
2013-01-06 01:23:00,31.5,30.0,30.33,SW,219,0.0,0.0,94,0.00,,,0.00,Wunderground v.1.15,2013-01-06 07:23:00,
2013-01-06 01:29:00,31.4,29.9,30.33,SW,219,0.0,0.0,94,0.00,,,0.00,Wunderground v.1.15,2013-01-06 07:29:00,
2013-01-06 01:35:00,31.1,29.6,30.33,SW,219,0.0,0.0,94,0.00,,,0.00,Wunderground v.1.15,2013-01-06 07:35:00,
2013-01-06 01:43:00,30.9,29.4,30.33,SW,219,0.0,0.0,94,0.00,,,0.00,Wunderground v.1.15,2013-01-06 07:43:00,
2013-01-06 01:50:00,30.6,29.1,30.33,SW,219,0.0,0.0,94,0.00,,,0.00,Wunderground v.1.15,2013-01-06 07:50:00,
2013-01-06 01:56:00,30.4,28.9,30.33,SW,219,0.0,0.0,94,0.00,,,0.00,Wunderground v.1.15,2013-01-06 07:56:00,
2013-01-06 02:03:00,30.3,28.8,30.33,SW,219,0.0,0.0,94,0.00,,,0.00,Wunderground v.1.15,2013-01-06 08:03:00,
2013-01-06 02:09:00,30.4,29.1,30.33,SW,219,0.0,0.0,95,0.00,,,0.00,Wunderground v.1.15,2013-01-06 08:09:00,
2013-01-06 02:16:00,30.6,29.3,30.33,SW,219,0.0,0.0,95,0.00,,,0.00,Wunderground v.1.15,2013-01-06 08:16:00,
2013-01-06 02:23:00,30.6,29.3,30.33,SW,219,0.0,0.0,95,0.00,,,0.00,Wunderground v.1.15,2013-01-06 08:23:00,
2013-01-06 02:31:00,30.5,29.2,30.33,SW,219,0.0,0.0,95,0.00,,,0.00,Wunderground v.1.15,2013-01-06 08:31:00,
2013-01-06 02:39:00,30.6,29.3,30.33,SW,219,0.0,0.0,95,0.00,,,0.00,Wunderground v.1.15,2013-01-06 08:39:00,
2013-01-06 02:45:00,30.6,29.3,30.31,East,83,0.0,0.0,95,0.00,,,0.00,Wunderground v.1.15,2013-01-06 08:45:00,
2013-01-06 02:50:00,30.7,29.4,30.32,East,83,0.0,0.0,95,0.00,,,0.00,Wunderground v.1.15,2013-01-06 08:50:00,
2013-01-06 02:56:00,30.5,29.2,30.32,East,83,0.0,0.0,95,0.00,,,0.00,Wunderground v.1.15,2013-01-06 08:56:00,
2013-01-06 03:02:00,30.5,29.2,30.33,East,83,0.0,0.0,95,0.00,,,0.00,Wunderground v.1.15,2013-01-06 09:02:00,
2013-01-06 03:07:00,30.7,29.4,30.32,East,83,0.0,0.0,95,0.00,,,0.00,Wunderground v.1.15,2013-01-06 09:07:00,
2013-01-06 03:14:00,30.7,29.4,30.33,East,83,0.0,0.0,95,0.00,,,0.00,Wunderground v.1.15,2013-01-06 09:14:00,
2013-01-06 03:19:00,30.7,29.4,30.33,East,83,0.0,0.0,95,0.00,,,0.00,Wunderground v.1.15,2013-01-06 09:19:00,
2013-01-06 03:27:00,30.7,29.4,30.32,East,83,0.0,0.0,95,0.00,,,0.00,Wunderground v.1.15,2013-01-06 09:27:00,
2013-01-06 03:44:00,30.1,28.8,30.33,East,83,0.0,0.0,95,0.00,,,0.00,Wunderground v.1.15,2013-01-06 09:44:00,
2013-01-06 03:50:00,29.8,28.5,30.33,East,83,0.0,0.0,95,0.00,,,0.00,Wunderground v.1.15,2013-01-06 09:50:00,
2013-01-06 03:58:00,29.6,28.3,30.33,East,83,0.0,0.0,95,0.00,,,0.00,Wunderground v.1.15,2013-01-06 09:58:00,
2013-01-06 04:05:00,29.8,28.5,30.33,East,83,0.0,0.0,95,0.00,,,0.00,Wunderground v.1.15,2013-01-06 10:05:00,
2013-01-06 04:10:00,30.1,28.8,30.33,East,83,0.0,0.0,95,0.00,,,0.00,Wunderground v.1.15,2013-01-06 10:10:00,
2013-01-06 04:16:00,30.0,28.7,30.33,East,83,0.0,0.0,95,0.00,,,0.00,Wunderground v.1.15,2013-01-06 10:16:00,
2013-01-06 04:23:00,29.7,28.4,30.33,East,83,0.0,0.0,95,0.00,,,0.00,Wunderground v.1.15,2013-01-06 10:23:00,
2013-01-06 04:30:00,29.4,28.1,30.33,East,83,0.0,0.0,95,0.00,,,0.00,Wunderground v.1.15,2013-01-06 10:30:00,
2013-01-06 04:35:00,29.3,28.0,30.33,East,83,0.0,0.0,95,0.00,,,0.00,Wunderground v.1.15,2013-01-06 10:35:00,
2013-01-06 04:40:00,29.2,27.9,30.33,East,83,0.0,0.0,95,0.00,,,0.00,Wunderground v.1.15,2013-01-06 10:40:00,
2013-01-06 04:46:00,29.2,27.9,30.34,East,83,0.0,0.0,95,0.00,,,0.00,Wunderground v.1.15,2013-01-06 10:46:00,
2013-01-06 04:52:00,29.3,28.0,30.34,East,83,0.0,0.0,95,0.00,,,0.00,Wunderground v.1.15,2013-01-06 10:52:00,
2013-01-06 04:58:00,29.7,28.7,30.34,East,83,0.0,0.0,96,0.00,,,0.00,Wunderground v.1.15,2013-01-06 10:58:00,
2013-01-06 05:07:00,29.9,28.9,30.34,East,83,0.0,0.0,96,0.00,,,0.00,Wunderground v.1.15,2013-01-06 11:07:00,
2013-01-06 05:14:00,29.7,28.4,30.33,East,83,0.0,0.0,95,0.00,,,0.00,Wunderground v.1.15,2013-01-06 11:14:00,
2013-01-06 05:21:00,29.5,28.2,30.34,East,83,0.0,0.0,95,0.00,,,0.00,Wunderground v.1.15,2013-01-06 11:21:00,
2013-01-06 05:28:00,29.1,27.8,30.34,East,83,0.0,0.0,95,0.00,,,0.00,Wunderground v.1.15,2013-01-06 11:28:00,
2013-01-06 05:33:00,28.7,27.2,30.34,East,83,0.0,0.0,94,0.00,,,0.00,Wunderground v.1.15,2013-01-06 11:33:00,
2013-01-06 05:41:00,28.3,26.8,30.34,East,83,0.0,0.0,94,0.00,,,0.00,Wunderground v.1.15,2013-01-06 11:41:00,
2013-01-06 05:47:00,28.1,26.9,30.34,East,83,0.0,0.0,95,0.00,,,0.00,Wunderground v.1.15,2013-01-06 11:47:00,
2013-01-06 05:53:00,28.0,26.8,30.34,East,83,0.0,0.0,95,0.00,,,0.00,Wunderground v.1.15,2013-01-06 11:53:00,
2013-01-06 05:59:00,28.0,26.8,30.34,East,83,0.0,0.0,95,0.00,,,0.00,Wunderground v.1.15,2013-01-06 11:59:00,
2013-01-06 06:07:00,28.2,27.0,30.35,East,83,0.0,0.0,95,0.00,,,0.00,Wunderground v.1.15,2013-01-06 12:07:00,
2013-01-06 06:14:00,28.3,27.1,30.35,East,83,0.0,0.0,95,0.00,,,0.00,Wunderground v.1.15,2013-01-06 12:14:00,
2013-01-06 06:21:00,28.3,27.1,30.35,East,83,0.0,0.0,95,0.00,,,0.00,Wunderground v.1.15,2013-01-06 12:21:00,
2013-01-06 06:28:00,28.1,26.9,30.35,East,83,0.0,0.0,95,0.00,,,0.00,Wunderground v.1.15,2013-01-06 12:28:00,
2013-01-06 06:33:00,28.1,26.9,30.35,East,83,0.0,0.0,95,0.00,,,0.00,Wunderground v.1.15,2013-01-06 12:33:00,
2013-01-06 06:39:00,28.0,26.8,30.35,East,83,0.0,0.0,95,0.00,,,0.00,Wunderground v.1.15,2013-01-06 12:39:00,
2013-01-06 06:45:00,28.8,27.8,30.35,North,11,0.0,0.0,96,0.00,,,0.00,Wunderground v.1.15,2013-01-06 12:45:00,
2013-01-06 06:53:00,30.2,29.2,30.36,North,356,0.0,0.0,96,0.00,,,0.00,Wunderground v.1.15,2013-01-06 12:53:00,
2013-01-06 06:59:00,31.0,30.2,30.36,NNW,338,0.0,0.0,97,0.00,,,0.00,Wunderground v.1.15,2013-01-06 12:59:00,
2013-01-06 07:04:00,31.4,30.6,30.36,NNW,330,0.0,0.0,97,0.00,,,0.00,Wunderground v.1.15,2013-01-06 13:04:00,
2013-01-06 07:09:00,31.5,30.7,30.36,NNW,330,0.0,0.0,97,0.00,,,0.00,Wunderground v.1.15,2013-01-06 13:09:00,
2013-01-06 07:17:00,31.7,30.7,30.36,NNW,330,0.0,0.0,96,0.00,,,0.00,Wunderground v.1.15,2013-01-06 13:17:00,
2013-01-06 07:24:00,31.9,30.9,30.37,NNW,328,0.0,0.0,96,0.00,,,0.00,Wunderground v.1.15,2013-01-06 13:24:00,
2013-01-06 07:32:00,31.9,30.9,30.38,NNW,330,2.0,2.0,96,0.00,,,0.00,Wunderground v.1.15,2013-01-06 13:32:00,
2013-01-06 07:38:00,32.0,31.0,30.38,NNW,328,4.0,4.0,96,0.00,,,0.00,Wunderground v.1.15,2013-01-06 13:38:00,
2013-01-06 07:46:00,32.1,31.1,30.38,NNW,330,0.0,4.0,96,0.00,,,0.00,Wunderground v.1.15,2013-01-06 13:46:00,
2013-01-06 07:51:00,32.2,31.2,30.38,NNW,328,0.0,1.0,96,0.00,,,0.00,Wunderground v.1.15,2013-01-06 13:51:00,
2013-01-06 07:56:00,32.4,31.4,30.38,NNW,331,1.0,4.0,96,0.00,,,0.00,Wunderground v.1.15,2013-01-06 13:56:00,
2013-01-06 08:08:00,32.5,31.5,30.38,NNW,344,4.0,4.0,96,0.00,,,0.00,Wunderground v.1.15,2013-01-06 14:08:00,
2013-01-06 08:14:00,33.1,31.8,30.39,NW,322,2.0,2.0,95,0.00,,,0.00,Wunderground v.1.15,2013-01-06 14:14:00,
2013-01-06 08:19:00,33.4,32.1,30.39,NW,318,1.0,4.0,95,0.00,,,0.00,Wunderground v.1.15,2013-01-06 14:19:00,
2013-01-06 08:25:00,33.5,32.0,30.39,NW,320,2.0,3.0,94,0.00,,,0.00,Wunderground v.1.15,2013-01-06 14:25:00,
2013-01-06 08:32:00,33.9,32.1,30.40,NNW,328,8.0,8.0,93,0.00,,,0.00,Wunderground v.1.15,2013-01-06 14:32:00,
2013-01-06 08:37:00,34.2,32.1,30.40,NNW,341,5.0,5.0,92,0.00,,,0.00,Wunderground v.1.15,2013-01-06 14:37:00,
2013-01-06 08:46:00,34.9,32.5,30.40,NNW,340,4.0,5.0,91,0.00,,,0.00,Wunderground v.1.15,2013-01-06 14:46:00,
2013-01-06 08:52:00,35.3,32.9,30.40,NNW,327,6.0,6.0,91,0.00,,,0.00,Wunderground v.1.15,2013-01-06 14:52:00,
2013-01-06 08:58:00,35.8,33.2,30.40,NNW,330,4.0,5.0,90,0.00,,,0.00,Wunderground v.1.15,2013-01-06 14:58:00,
2013-01-06 09:04:00,36.2,33.3,30.41,NNW,330,4.0,5.0,89,0.00,,,0.00,Wunderground v.1.15,2013-01-06 15:04:00,
2013-01-06 09:10:00,36.7,33.5,30.41,NNW,344,6.0,6.0,88,0.00,,,0.00,Wunderground v.1.15,2013-01-06 15:10:00,
2013-01-06 09:16:00,37.2,33.7,30.41,NNW,330,4.0,5.0,87,0.00,,,0.00,Wunderground v.1.15,2013-01-06 15:16:00,
2013-01-06 09:23:00,37.8,34.0,30.41,NNW,348,4.0,5.0,86,0.00,,,0.00,Wunderground v.1.15,2013-01-06 15:23:00,
2013-01-06 09:28:00,38.2,34.1,30.41,North,359,6.0,6.0,85,0.00,,,0.01,Wunderground v.1.15,2013-01-06 15:28:00,
2013-01-06 09:36:00,39.7,34.3,30.41,NNW,347,9.0,9.0,81,0.00,,,0.01,Wunderground v.1.15,2013-01-06 15:36:00,
2013-01-06 09:42:00,40.8,35.4,30.42,North,356,7.0,9.0,81,0.00,,,0.01,Wunderground v.1.15,2013-01-06 15:42:00,
2013-01-06 09:48:00,41.5,35.2,30.42,North,349,6.0,6.0,78,0.00,,,0.01,Wunderground v.1.15,2013-01-06 15:48:00,
2013-01-06 09:54:00,42.2,35.5,30.42,NE,38,4.0,6.0,77,0.00,,,0.01,Wunderground v.1.15,2013-01-06 15:54:00,
2013-01-06 10:02:00,43.1,35.0,30.42,North,2,4.0,6.0,73,0.00,,,0.01,Wunderground v.1.15,2013-01-06 16:02:00,
2013-01-06 10:09:00,43.5,35.1,30.42,NNW,332,5.0,7.0,72,0.00,,,0.01,Wunderground v.1.15,2013-01-06 16:09:00,
2013-01-06 10:16:00,44.3,35.5,30.42,North,360,8.0,8.0,71,0.00,,,0.01,Wunderground v.1.15,2013-01-06 16:16:00,
2013-01-06 10:22:00,44.9,35.7,30.42,North,1,4.0,7.0,70,0.00,,,0.01,Wunderground v.1.15,2013-01-06 16:22:00,
2013-01-06 10:28:00,45.6,36.0,30.42,NNW,345,7.0,7.0,69,0.00,,,0.01,Wunderground v.1.15,2013-01-06 16:28:00,
2013-01-06 10:37:00,46.8,36.4,30.42,North,353,4.0,8.0,67,0.00,,,0.01,Wunderground v.1.15,2013-01-06 16:37:00,
2013-01-06 10:43:00,47.3,36.1,30.42,North,1,6.0,6.0,65,0.00,,,0.01,Wunderground v.1.15,2013-01-06 16:43:00,
2013-01-06 10:48:00,47.5,35.9,30.42,ENE,58,5.0,9.0,64,0.00,,,0.01,Wunderground v.1.15,2013-01-06 16:48:00,
2013-01-06 10:55:00,48.0,35.6,30.42,NNW,340,9.0,9.0,62,0.00,,,0.01,Wunderground v.1.15,2013-01-06 16:55:00,
2013-01-06 11:01:00,48.6,35.7,30.42,North,10,3.0,9.0,61,0.00,,,0.01,Wunderground v.1.15,2013-01-06 17:01:00,
2013-01-06 11:08:00,48.6,35.7,30.42,NE,45,5.0,8.0,61,0.00,,,0.01,Wunderground v.1.15,2013-01-06 17:08:00,
2013-01-06 11:14:00,49.3,36.4,30.42,North,350,1.0,5.0,61,0.00,,,0.01,Wunderground v.1.15,2013-01-06 17:14:00,
2013-01-06 11:20:00,49.6,36.3,30.42,NE,35,6.0,6.0,60,0.00,,,0.01,Wunderground v.1.15,2013-01-06 17:20:00,
2013-01-06 11:28:00,50.4,36.6,30.42,NNW,347,2.0,8.0,59,0.00,,,0.01,Wunderground v.1.15,2013-01-06 17:28:00,
2013-01-06 11:35:00,51.1,35.9,30.42,NW,317,5.0,5.0,56,0.00,,,0.01,Wunderground v.1.15,2013-01-06 17:35:00,
2013-01-06 11:43:00,51.7,36.0,30.42,North,360,1.0,5.0,55,0.00,,,0.01,Wunderground v.1.15,2013-01-06 17:43:00,
2013-01-06 11:50:00,52.5,35.8,30.42,North,350,5.0,5.0,53,0.00,,,0.01,Wunderground v.1.15,2013-01-06 17:50:00,
2013-01-06 11:55:00,52.7,35.6,30.41,NNW,340,0.0,7.0,52,0.00,,,0.01,Wunderground v.1.15,2013-01-06 17:55:00,
2013-01-06 12:03:00,53.1,35.4,30.41,NNW,332,5.0,5.0,51,0.00,,,0.01,Wunderground v.1.15,2013-01-06 18:03:00,
2013-01-06 12:09:00,53.6,35.4,30.40,North,356,11.0,11.0,50,0.00,,,0.01,Wunderground v.1.15,2013-01-06 18:09:00,
2013-01-06 12:16:00,53.9,36.2,30.40,NNE,12,1.0,5.0,51,0.00,,,0.01,Wunderground v.1.15,2013-01-06 18:16:00,
2013-01-06 12:22:00,54.6,35.3,30.40,NNW,345,2.0,4.0,48,0.00,,,0.01,Wunderground v.1.15,2013-01-06 18:22:00,
2013-01-06 12:28:00,55.1,34.7,30.39,WNW,301,9.0,9.0,46,0.00,,,0.01,Wunderground v.1.15,2013-01-06 18:28:00,
2013-01-06 12:35:00,55.4,35.5,30.39,North,349,6.0,6.0,47,0.00,,,0.01,Wunderground v.1.15,2013-01-06 18:35:00,
2013-01-06 12:42:00,55.9,34.3,30.38,NW,314,2.0,6.0,44,0.00,,,0.01,Wunderground v.1.15,2013-01-06 18:42:00,
2013-01-06 12:48:00,56.6,34.3,30.38,North,354,5.0,8.0,43,0.00,,,0.01,Wunderground v.1.15,2013-01-06 18:48:00,
2013-01-06 12:55:00,56.9,34.0,30.38,NNW,330,2.0,5.0,42,0.00,,,0.01,Wunderground v.1.15,2013-01-06 18:55:00,
2013-01-06 13:02:00,57.1,34.2,30.37,NW,308,4.0,8.0,42,0.00,,,0.01,Wunderground v.1.15,2013-01-06 19:02:00,
2013-01-06 13:07:00,57.3,34.4,30.37,NNW,340,5.0,5.0,42,0.00,,,0.01,Wunderground v.1.15,2013-01-06 19:07:00,
2013-01-06 13:13:00,57.6,35.2,30.37,NW,316,2.0,5.0,43,0.00,,,0.01,Wunderground v.1.15,2013-01-06 19:13:00,
2013-01-06 13:20:00,58.2,34.6,30.36,NNW,336,6.0,7.0,41,0.00,,,0.01,Wunderground v.1.15,2013-01-06 19:20:00,
2013-01-06 13:29:00,58.5,34.2,30.36,WNW,299,5.0,5.0,40,0.00,,,0.01,Wunderground v.1.15,2013-01-06 19:29:00,
2013-01-06 13:34:00,59.1,34.8,30.36,NE,52,8.0,8.0,40,0.00,,,0.01,Wunderground v.1.15,2013-01-06 19:34:00,
2013-01-06 13:48:00,60.3,33.9,30.36,North,11,5.0,5.0,37,0.00,,,0.01,Wunderground v.1.15,2013-01-06 19:48:00,
2013-01-06 13:54:00,60.2,35.8,30.36,NE,44,5.0,8.0,40,0.00,,,0.01,Wunderground v.1.15,2013-01-06 19:54:00,
2013-01-06 13:59:00,60.5,34.1,30.35,NNW,342,4.0,5.0,37,0.00,,,0.01,Wunderground v.1.15,2013-01-06 19:59:00,
2013-01-06 14:06:00,60.7,34.3,30.35,NNW,330,1.0,5.0,37,0.00,,,0.01,Wunderground v.1.15,2013-01-06 20:06:00,
2013-01-06 14:11:00,60.9,33.7,30.35,NNW,328,2.0,5.0,36,0.00,,,0.01,Wunderground v.1.15,2013-01-06 20:11:00,
2013-01-06 14:13:00,61.2,34.7,30.35,North,355,7.0,7.0,37,0.00,,,0.01,Wunderground v.1.15,2013-01-06 20:13:00,
2013-01-06 14:20:00,61.4,34.9,30.35,NNW,345,6.0,7.0,37,0.00,,,0.01,Wunderground v.1.15,2013-01-06 20:20:00,
2013-01-06 14:25:00,61.6,32.9,30.35,NW,304,6.0,7.0,34,0.00,,,0.01,Wunderground v.1.15,2013-01-06 20:25:00,
2013-01-06 14:30:00,61.9,33.2,30.35,NNE,18,3.0,7.0,34,0.00,,,0.01,Wunderground v.1.15,2013-01-06 20:30:00,
2013-01-06 14:36:00,61.9,33.2,30.35,North,353,6.0,6.0,34,0.00,,,0.01,Wunderground v.1.15,2013-01-06 20:36:00,
2013-01-06 14:43:00,62.2,33.5,30.35,North,353,4.0,6.0,34,0.00,,,0.01,Wunderground v.1.15,2013-01-06 20:43:00,
2013-01-06 14:48:00,62.1,32.6,30.35,NNW,344,6.0,8.0,33,0.00,,,0.01,Wunderground v.1.15,2013-01-06 20:48:00,
2013-01-06 14:53:00,62.3,34.3,30.35,NNW,336,1.0,8.0,35,0.00,,,0.01,Wunderground v.1.15,2013-01-06 20:53:00,
2013-01-06 15:00:00,62.7,33.2,30.35,NNW,337,1.0,9.0,33,0.00,,,0.01,Wunderground v.1.15,2013-01-06 21:00:00,
2013-01-06 15:08:00,63.1,32.7,30.35,NNW,344,2.0,8.0,32,0.00,,,0.01,Wunderground v.1.15,2013-01-06 21:08:00,
2013-01-06 15:14:00,63.1,31.9,30.35,NW,325,4.0,4.0,31,0.00,,,0.01,Wunderground v.1.15,2013-01-06 21:14:00,
2013-01-06 15:19:00,62.7,31.6,30.35,NNE,13,4.0,7.0,31,0.00,,,0.01,Wunderground v.1.15,2013-01-06 21:19:00,
2013-01-06 15:24:00,62.4,31.3,30.35,NNW,344,2.0,5.0,31,0.00,,,0.01,Wunderground v.1.15,2013-01-06 21:24:00,
2013-01-06 15:31:00,62.3,32.8,30.36,NNE,28,1.0,5.0,33,0.00,,,0.01,Wunderground v.1.15,2013-01-06 21:31:00,
2013-01-06 15:37:00,62.8,32.5,30.35,NNW,337,1.0,8.0,32,0.00,,,0.01,Wunderground v.1.15,2013-01-06 21:37:00,
2013-01-06 15:43:00,63.0,33.4,30.35,NE,34,4.0,8.0,33,0.00,,,0.01,Wunderground v.1.15,2013-01-06 21:43:00,
2013-01-06 15:51:00,62.5,33.0,30.35,North,357,7.0,7.0,33,0.00,,,0.01,Wunderground v.1.15,2013-01-06 21:51:00,
2013-01-06 15:57:00,61.9,31.7,30.35,NNE,15,3.0,4.0,32,0.00,,,0.01,Wunderground v.1.15,2013-01-06 21:57:00,
2013-01-06 16:03:00,62.1,32.6,30.35,NNW,344,1.0,3.0,33,0.00,,,0.01,Wunderground v.1.15,2013-01-06 22:03:00,
2013-01-06 16:09:00,62.1,32.6,30.35,North,5,5.0,5.0,33,0.00,,,0.01,Wunderground v.1.15,2013-01-06 22:09:00,
2013-01-06 16:16:00,61.3,31.9,30.35,North,4,5.0,7.0,33,0.00,,,0.01,Wunderground v.1.15,2013-01-06 22:16:00,
2013-01-06 16:25:00,61.3,31.9,30.35,NNW,345,2.0,4.0,33,0.00,,,0.01,Wunderground v.1.15,2013-01-06 22:25:00,
2013-01-06 16:31:00,61.3,31.9,30.35,NNW,345,1.0,6.0,33,0.00,,,0.01,Wunderground v.1.15,2013-01-06 22:31:00,
2013-01-06 16:39:00,60.8,31.5,30.35,NNW,338,6.0,6.0,33,0.00,,,0.01,Wunderground v.1.15,2013-01-06 22:39:00,
2013-01-06 16:46:00,60.4,31.9,30.35,North,3,2.0,6.0,34,0.00,,,0.01,Wunderground v.1.15,2013-01-06 22:46:00,
2013-01-06 16:52:00,59.6,31.2,30.35,North,358,1.0,3.0,34,0.00,,,0.01,Wunderground v.1.15,2013-01-06 22:52:00,
2013-01-06 16:59:00,58.7,30.4,30.35,NNE,15,3.0,3.0,34,0.00,,,0.01,Wunderground v.1.15,2013-01-06 22:59:00,
2013-01-06 17:06:00,57.7,30.9,30.35,North,358,2.0,5.0,36,0.00,,,0.01,Wunderground v.1.15,2013-01-06 23:06:00,
2013-01-06 17:12:00,56.7,30.7,30.35,NNE,14,0.0,5.0,37,0.00,,,0.01,Wunderground v.1.15,2013-01-06 23:12:00,
2013-01-06 17:19:00,55.5,30.3,30.35,North,3,0.0,1.0,38,0.00,,,0.01,Wunderground v.1.15,2013-01-06 23:19:00,
2013-01-06 17:26:00,54.4,30.6,30.35,North,2,0.0,0.0,40,0.00,,,0.01,Wunderground v.1.15,2013-01-06 23:26:00,
2013-01-06 17:33:00,53.0,29.9,30.35,North,2,0.0,0.0,41,0.00,,,0.01,Wunderground v.1.15,2013-01-06 23:33:00,
2013-01-06 17:39:00,52.2,29.8,30.35,North,2,0.0,0.0,42,0.00,,,0.01,Wunderground v.1.15,2013-01-06 23:39:00,
2013-01-06 17:44:00,50.9,29.7,30.35,North,2,0.0,0.0,44,0.00,,,0.01,Wunderground v.1.15,2013-01-06 23:44:00,
2013-01-06 17:50:00,50.3,30.3,30.35,North,2,0.0,0.0,46,0.00,,,0.01,Wunderground v.1.15,2013-01-06 23:50:00,
2013-01-06 17:57:00,48.8,30.0,30.34,North,3,0.0,0.0,48,0.00,,,0.01,Wunderground v.1.15,2013-01-06 23:57:00,
2013-01-06 18:05:00,47.9,29.6,30.34,North,3,0.0,0.0,49,0.00,,,0.01,Wunderground v.1.15,2013-01-07 00:05:00,
2013-01-06 18:11:00,47.2,29.5,30.35,North,3,0.0,0.0,50,0.00,,,0.01,Wunderground v.1.15,2013-01-07 00:11:00,
2013-01-06 18:18:00,46.5,29.3,30.35,North,3,0.0,0.0,51,0.00,,,0.01,Wunderground v.1.15,2013-01-07 00:18:00,
2013-01-06 18:25:00,46.0,29.3,30.35,North,3,0.0,0.0,52,0.00,,,0.01,Wunderground v.1.15,2013-01-07 00:25:00,
2013-01-06 18:32:00,45.3,28.7,30.35,North,3,0.0,0.0,52,0.00,,,0.01,Wunderground v.1.15,2013-01-07 00:32:00,
2013-01-06 18:37:00,45.0,28.4,30.35,North,3,0.0,0.0,52,0.00,,,0.01,Wunderground v.1.15,2013-01-07 00:37:00,
2013-01-06 18:45:00,44.3,28.2,30.35,North,3,0.0,0.0,53,0.00,,,0.01,Wunderground v.1.15,2013-01-07 00:45:00,
2013-01-06 18:51:00,43.9,28.3,30.36,North,3,0.0,0.0,54,0.00,,,0.01,Wunderground v.1.15,2013-01-07 00:51:00,
2013-01-06 18:56:00,43.6,28.5,30.36,North,3,0.0,0.0,55,0.00,,,0.01,Wunderground v.1.15,2013-01-07 00:56:00,
2013-01-06 19:03:00,42.9,28.3,30.36,North,3,0.0,0.0,56,0.00,,,0.01,Wunderground v.1.15,2013-01-07 01:03:00,
2013-01-06 19:08:00,42.3,28.1,30.36,North,3,0.0,0.0,57,0.00,,,0.01,Wunderground v.1.15,2013-01-07 01:08:00,
2013-01-06 19:16:00,41.8,28.5,30.36,North,3,0.0,0.0,59,0.00,,,0.01,Wunderground v.1.15,2013-01-07 01:16:00,
2013-01-06 19:25:00,41.2,27.9,30.36,North,3,0.0,0.0,59,0.00,,,0.01,Wunderground v.1.15,2013-01-07 01:25:00,
2013-01-06 19:30:00,40.6,27.8,30.36,North,3,0.0,0.0,60,0.00,,,0.01,Wunderground v.1.15,2013-01-07 01:30:00,
2013-01-06 19:35:00,40.4,28.0,30.37,North,3,0.0,0.0,61,0.00,,,0.01,Wunderground v.1.15,2013-01-07 01:35:00,
2013-01-06 19:43:00,39.7,28.1,30.37,North,3,0.0,0.0,63,0.00,,,0.01,Wunderground v.1.15,2013-01-07 01:43:00,
2013-01-06 19:49:00,39.2,28.0,30.37,North,3,0.0,0.0,64,0.00,,,0.01,Wunderground v.1.15,2013-01-07 01:49:00,
2013-01-06 19:57:00,38.7,28.3,30.37,North,3,0.0,0.0,66,0.00,,,0.01,Wunderground v.1.15,2013-01-07 01:57:00,
2013-01-06 20:04:00,38.1,28.8,30.38,North,3,0.0,0.0,69,0.00,,,0.01,Wunderground v.1.15,2013-01-07 02:04:00,
2013-01-06 20:10:00,37.5,28.9,30.38,North,3,0.0,0.0,71,0.00,,,0.01,Wunderground v.1.15,2013-01-07 02:10:00,
2013-01-06 20:16:00,37.2,28.7,30.38,North,3,0.0,0.0,71,0.00,,,0.01,Wunderground v.1.15,2013-01-07 02:16:00,
2013-01-06 20:22:00,36.7,28.5,30.38,North,3,0.0,0.0,72,0.00,,,0.01,Wunderground v.1.15,2013-01-07 02:22:00,
2013-01-06 20:28:00,36.1,28.3,30.38,North,3,0.0,0.0,73,0.00,,,0.01,Wunderground v.1.15,2013-01-07 02:28:00,
2013-01-06 20:35:00,35.7,28.6,30.38,North,3,0.0,0.0,75,0.00,,,0.01,Wunderground v.1.15,2013-01-07 02:35:00,
2013-01-06 20:44:00,35.2,28.4,30.38,North,3,0.0,0.0,76,0.00,,,0.01,Wunderground v.1.15,2013-01-07 02:44:00,
2013-01-06 20:51:00,34.8,28.0,30.38,North,3,0.0,0.0,76,0.00,,,0.01,Wunderground v.1.15,2013-01-07 02:51:00,
2013-01-06 20:57:00,34.5,28.3,30.38,North,3,0.0,0.0,78,0.00,,,0.01,Wunderground v.1.15,2013-01-07 02:57:00,
2013-01-06 21:03:00,34.4,28.6,30.38,North,3,0.0,0.0,79,0.00,,,0.01,Wunderground v.1.15,2013-01-07 03:03:00,
2013-01-06 21:09:00,34.2,28.4,30.38,North,3,0.0,0.0,79,0.00,,,0.01,Wunderground v.1.15,2013-01-07 03:09:00,
2013-01-06 21:16:00,33.8,28.3,30.38,North,3,0.0,0.0,80,0.00,,,0.01,Wunderground v.1.15,2013-01-07 03:16:00,
2013-01-06 21:22:00,33.5,28.0,30.38,North,3,0.0,0.0,80,0.00,,,0.01,Wunderground v.1.15,2013-01-07 03:22:00,
2013-01-06 21:29:00,33.2,27.7,30.39,North,3,0.0,0.0,80,0.00,,,0.01,Wunderground v.1.15,2013-01-07 03:29:00,
2013-01-06 21:37:00,32.9,27.7,30.38,North,3,0.0,0.0,81,0.00,,,0.01,Wunderground v.1.15,2013-01-07 03:37:00,
2013-01-06 21:44:00,32.6,27.4,30.38,North,3,0.0,0.0,81,0.00,,,0.01,Wunderground v.1.15,2013-01-07 03:44:00,
2013-01-06 21:49:00,32.6,27.4,30.38,North,3,0.0,0.0,81,0.00,,,0.01,Wunderground v.1.15,2013-01-07 03:49:00,
2013-01-06 21:56:00,32.6,27.4,30.38,North,3,0.0,0.0,81,0.00,,,0.01,Wunderground v.1.15,2013-01-07 03:56:00,
2013-01-06 22:02:00,32.5,27.3,30.38,North,3,0.0,0.0,81,0.00,,,0.01,Wunderground v.1.15,2013-01-07 04:02:00,
2013-01-06 22:08:00,32.4,27.2,30.38,North,3,0.0,0.0,81,0.00,,,0.01,Wunderground v.1.15,2013-01-07 04:08:00,
2013-01-06 22:14:00,32.4,27.2,30.38,North,3,0.0,0.0,81,0.00,,,0.01,Wunderground v.1.15,2013-01-07 04:14:00,
2013-01-06 22:19:00,32.3,26.8,30.38,North,3,0.0,0.0,80,0.00,,,0.01,Wunderground v.1.15,2013-01-07 04:19:00,
2013-01-06 22:24:00,32.3,26.8,30.38,North,3,0.0,0.0,80,0.00,,,0.01,Wunderground v.1.15,2013-01-07 04:24:00,
2013-01-06 22:32:00,32.3,26.8,30.38,North,3,0.0,0.0,80,0.00,,,0.01,Wunderground v.1.15,2013-01-07 04:32:00,
2013-01-06 22:39:00,32.3,26.8,30.38,North,3,0.0,0.0,80,0.00,,,0.01,Wunderground v.1.15,2013-01-07 04:39:00,
2013-01-06 22:44:00,32.1,26.6,30.38,North,3,0.0,0.0,80,0.00,,,0.01,Wunderground v.1.15,2013-01-07 04:44:00,
2013-01-06 22:51:00,31.9,26.4,30.38,North,3,0.0,0.0,80,0.00,,,0.01,Wunderground v.1.15,2013-01-07 04:51:00,
2013-01-06 22:56:00,31.7,26.2,30.38,North,3,0.0,0.0,80,0.00,,,0.01,Wunderground v.1.15,2013-01-07 04:56:00,
2013-01-06 23:01:00,31.6,26.4,30.38,North,3,0.0,0.0,81,0.00,,,0.01,Wunderground v.1.15,2013-01-07 05:01:00,
2013-01-06 23:03:00,31.6,26.4,30.38,North,3,0.0,0.0,81,0.00,,,0.01,Wunderground v.1.15,2013-01-07 05:03:00,
2013-01-06 23:06:00,31.5,26.0,30.37,North,3,0.0,0.0,80,0.00,,,0.01,Wunderground v.1.15,2013-01-07 05:06:00,
2013-01-06 23:09:00,31.4,25.9,30.37,North,3,0.0,0.0,80,0.00,,,0.01,Wunderground v.1.15,2013-01-07 05:09:00,
2013-01-06 23:16:00,31.1,25.7,30.37,North,3,0.0,0.0,80,0.00,,,0.01,Wunderground v.1.15,2013-01-07 05:16:00,
2013-01-06 23:24:00,30.8,25.7,30.37,North,3,0.0,0.0,81,0.00,,,0.01,Wunderground v.1.15,2013-01-07 05:24:00,
2013-01-06 23:31:00,30.8,25.7,30.37,North,3,0.0,0.0,81,0.00,,,0.01,Wunderground v.1.15,2013-01-07 05:31:00,
2013-01-06 23:37:00,30.7,25.9,30.37,North,3,0.0,0.0,82,0.00,,,0.01,Wunderground v.1.15,2013-01-07 05:37:00,
2013-01-06 23:45:00,30.7,25.9,30.37,North,3,0.0,0.0,82,0.00,,,0.01,Wunderground v.1.15,2013-01-07 05:45:00,
2013-01-06 23:50:00,30.6,25.5,30.37,North,3,0.0,0.0,81,0.00,,,0.01,Wunderground v.1.15,2013-01-07 05:50:00,
2013-01-06 23:57:00,30.4,25.6,30.37,North,3,0.0,0.0,82,0.00,,,0.01,Wunderground v.1.15,2013-01-07 05:57:00,